Content
SEND FEEDBACK

Daily
Averages
Monthly
Summary
Austria

ZELTWEG, AUSTRIA


Home > Europe > Austria
Elevation: 2250 feet     Latitude: 47 12N     Longitude: 014 44E

WEATHER
 
SELECT A DAY
Number of Records: 36,027;   Date Range: 12/26/03 - 7/21/14
 
SHARE

PRINT THIS DATA

[ ← Previous Day ]
WEATHER ALMANAC - FEBRUARY 13, 2013
[ Next Day → ]
[ °C ]   °F
Weather ElementAverageHighLow
Temperature24 °F26.6 °F (10:50 am)15.8 °F (6:50 am)
Dewpoint22.8 °F24.8 °F (10:20 am)14 °F (6:50 am)
Humidity95.2 %100 % (5:50 am)93 % (6:50 am)
Barometer29.99 in30.12 in (9:50 pm)29.86 in (5:50 am)
Wind Speed4.1 mph6.9 mph (4:50 pm)
Weather ElementAverage
Visibility2 mi
Wind DirectionSW (230 °)

Weather ElementTotal
Precipitation---
Heating Degree Days43.8 (Base 65)
Averaged from 26 records on February 13, 2013
WEATHER CONDITIONS BREAKOUT
WIND DIRECTION BREAKOUT
WEATHER BY HOUR - FEBRUARY 13, 2013
[ °C ]   °F
Local TimeTemperatureDewpointHumidityBarometerVisibilityWind DirectionWind SpeedGust SpeedPrecipitationEventsConditions
5:50 AM19.4 °F19.4 °F100 %29.86 in4.3 miWSW (240°)3.5 mphMostly Cloudy
6:50 AM15.8 °F14.0 °F93 %29.89 in4.3 miWest (260°)2.3 mphMostly Cloudy
7:20 AM17.6 °F15.8 °F93 %29.89 in4.3 miWSW (240°)3.5 mphMostly Cloudy
7:50 AM19.4 °F17.6 °F93 %29.92 in4.3 miVariable1.2 mphMostly Cloudy
8:20 AM19.4 °F19.4 °F100 %29.92 in4.3 miNNE (20°)1.2 mphSnowLight Snow
8:50 AM21.2 °F21.2 °F100 %29.92 in0.9 miVariable1.2 mphSnowLight Snow
9:50 AM24.8 °F23.0 °F93 %29.95 in1.9 miWNW (290°)4.6 mphSnowLight Snow
10:20 AM24.8 °F24.8 °F100 %29.95 in1.2 miWest (270°)3.5 mphSnowSnow
10:50 AM26.6 °F24.8 °F93 %29.98 in0.9 miWNW (290°)3.5 mphSnowSnow
11:20 AM26.6 °F24.8 °F93 %29.98 in2.2 miWest (280°)4.6 mphSnowLight Snow
11:50 AM26.6 °F24.8 °F93 %29.98 in2.2 miWest (280°)5.8 mphSnowLight Snow
12:20 PM26.6 °F24.8 °F93 %29.98 in2.2 miWest (270°)5.8 mphSnowLight Snow
12:50 PM26.6 °F24.8 °F93 %30.01 in1.2 miWest (280°)5.8 mphSnowLight Snow
1:20 PM24.8 °F24.8 °F100 %30.01 in0.5 miWNW (290°)5.8 mphSnowSnow
1:50 PM24.8 °F24.8 °F100 %30.01 in0.6 miWNW (300°)4.6 mphSnowSnow
2:20 PM26.6 °F24.8 °F93 %30.01 in0.6 miWest (280°)5.8 mphSnowSnow
2:50 PM26.6 °F24.8 °F93 %30.01 in1.2 miWest (270°)4.6 mphSnowLight Snow
3:20 PM26.6 °F24.8 °F93 %30.01 in1.2 miWest (280°)4.6 mphSnowLight Snow
3:50 PM26.6 °F24.8 °F93 %30.01 in1.6 miWest (280°)5.8 mphSnowLight Snow
4:20 PM24.8 °F24.8 °F100 %30.04 in2.5 miWNW (290°)5.8 mphSnowLight Snow
4:50 PM24.8 °F24.8 °F100 %30.04 in1.9 miWNW (290°)6.9 mphSnowLight Snow
5:50 PM24.8 °F23.0 °F93 %30.06 in1.9 miWest (260°)5.8 mphSnowLight Snow
6:50 PM24.8 °F23.0 °F93 %30.06 in1.6 miWSW (250°)2.3 mphSnowLight Snow
7:50 PM24.8 °F23.0 °F93 %30.09 in1.6 miVariable1.2 mphSnowLight Snow
8:50 PM24.8 °F23.0 °F93 %30.09 in1.2 miWSW (240°)2.3 mphSnowLight Snow
9:50 PM24.8 °F23.0 °F93 %30.12 in1.2 miSW (230°)3.5 mphSnowLight Snow
Hourly data recorded from LOXZ, located miles away from Zeltweg, Austria







STORIES FROM OUR PARTNERS